Regional Weather Roundup
Issued by NWS

Home | Current Version | Previous Version | Graphics & Text | Print | Product List | Glossary On
Versions: 1 2 3 4 5 6 7 8 9 10 11 12 13 14 15 16 17 18 19 20 21 22 23 24 25 26 27 28 29 30 31 32 33 34 35 36 37 38 39 40 41 42 43 44 45 46 47 48 49 50
000
ASUS43 KDTX 290310
RWRMI
MICHIGAN HOURLY REGIONAL WEATHER ROUNDUP
NATIONAL WEATHER SERVICE DETROIT/PONTIAC MI
ISSUED BY NATIONAL WEATHER SERVICE GRAND RAPIDS MI
1100 PM EDT SUN MAY 28 2017

NOTE: "FAIR" INDICATES FEW OR NO CLOUDS BELOW 12,000 FEET WITH NO
SIGNIFICANT WEATHER AND/OR OBSTRUCTION TO VISIBILITY.

MIZ047>049-052>055-059>063-066>070-074>076-081>083-290400-
SOUTHEAST LOWER MICHIGAN

CITY           SKY/WX    TMP DP  RH WIND       PRES   REMARKS
ADRIAN         CLOUDY    64  63  96 W5        29.73S
ALMA           CLEAR     62  54  73 W7        29.72R
ANN ARBOR      CLOUDY    61  60  97 CALM      29.72S
BAD AXE        LGT RAIN  61  60  94 E6        29.69S
DETROIT CITY   CLOUDY    61  59  93 S7        29.72R
DETROIT        TSTM      62  60  93 S6        29.73R
FLINT          CLOUDY    64  62  93 W8        29.69S
GROSSE ILE     LGT RAIN  63  59  87 CALM      29.72R
HILLSDALE      CLEAR     61  55  82 W9        29.75R
HOWELL         CLOUDY    62  60  91 CALM      29.71S

CITY           SKY/WX    TMP DP  RH WIND       PRES   REMARKS
JACKSON        PTCLDY    63  56  78 W10       29.73R
LANSING        CLEAR     65  54  67 W10       29.73R
MASON          PTCLDY    64  55  72 W10G17    29.73R
MONROE         LGT RAIN  61  60  95 S3        29.71S
MT. CLEMENS    CLOUDY    64  64 100 W3        29.71R
PONTIAC        CLOUDY    61  59  93 W3        29.70S
PORT HOPE        N/A     57  56  96 SE7       29.68R
PORT HURON     RAIN      61  59  94 S5        29.71R
TRI CITIES     CLEAR     65  57  75 W9        29.69R
YPSILANTI      CLOUDY    63  61  93 S3        29.72S
$$
MIZ043>046-050>051-056>058-064>065-071>073-077>080-290400-
SOUTHWEST LOWER MICHIGAN

CITY           SKY/WX    TMP DP  RH WIND       PRES   REMARKS
BATTLE CREEK   CLEAR     60  54  80 W5        29.76R
BENTON HARBOR  PTCLDY    60  56  86 CALM      29.76R
BIG RAPIDS     CLEAR     55  50  82 CALM      29.71S
COLDWATER      CLEAR     61  55  81 W8        29.76R
HOLLAND        CLEAR     58  55  90 S5        29.74S
GRAND RAPIDS   PTCLDY    60  56  86 SW7       29.74R
KALAMAZOO      CLEAR     59  52  77 SW5       29.76F
MARSHALL       CLEAR     61  55  79 W8        29.75R
MOUNT PLEASANT CLEAR     61  54  76 W7        29.71R
MUSKEGON       PTCLDY    57  55  93 S7        29.73R
STURGIS        CLEAR     60  54  82 CALM      29.76S
$$
MIZ016>042-290400-
NORTHERN LOWER MICHIGAN

CITY           SKY/WX    TMP DP  RH WIND       PRES   REMARKS
ALPENA         MOCLDY    56  56 100 S3        29.68F
BEAVER ISLAND  LGT RAIN  53  52  99 SW8       29.70R
BELLAIRE       PTCLDY    54  52  94 CALM      29.68R FOG
CADILLAC       CLEAR     56  53  88 CALM      29.70S
CHARLEVOIX     CLOUDY    53  52  98 N5        29.72R
GAYLORD        CLEAR     58  53  84 CALM      29.70R
HOUGHTON LAKE  CLEAR     61  54  77 W3        29.70S
MANISTEE       PTCLDY    59  55  87 SW7       29.69R
OSCODA         CLEAR     56  55  94 CALM      29.68R
PELLSTON       PTCLDY    52  50  93 CALM      29.68S
TRAVERSE CITY  PTCLDY    59  54  83 SE3       29.65F
LUDINGTON      PTCLDY    59  55  87 SW12      29.70R
$$
MIZ007>008-015-290400-
EASTERN UPPER MICHIGAN

CITY           SKY/WX    TMP DP  RH WIND       PRES   REMARKS
KINROSS        FOG       52  52 100 SW3       29.68R VSB 1/2
MACKINAC ISLAN FOG       51  51 100 CALM      29.67S VSB 1/4
NEWBERRY       CLOUDY    53  52  97 S8        29.64F FOG
S. S. MARIE    FOG       55  54  96 S7        29.65R VSB 3/4
$$
MIZ004>006-011>014-085-290400-
CENTRAL UPPER MICHIGAN

CITY           SKY/WX    TMP DP  RH WIND       PRES   REMARKS
MANISTIQUE     FOG       50  47  90 SE6       29.66S VSB 1/2
ESCANABA       CLOUDY    51  51 100 CALM      29.66S FOG
SAWYER-GWINN   FOG       51  51  97 S9        29.65S VSB 1/2
$$
MIZ001>003-009>011-084-290400-
WESTERN UPPER MICHIGAN

CITY           SKY/WX    TMP DP  RH WIND       PRES   REMARKS
IRON MOUNTAIN  LGT RAIN  55  52  89 SE6       29.65R
HOUGHTON       CLOUDY    53  50  89 NW5       29.61S
COPPER HARBOR    N/A     51  48  89 VRB3      29.61F
IRONWOOD       MOCLDY    51  51 100 S3        29.65S
$$

ABBREVIATIONS USED IN REMARKS
   TC - TEMPERATURE IN CELSIUS
  WCI - WIND CHILL INDEX
   HX - HEAT INDEX
  VSB - VISIBILITY




USA.gov is the U.S. government's official web portal to all federal, state and local government web resources and services.